Flag for Poland Weather past 2 weeks in Bydgoszcz, Poland

Now
56 °F

Overcast.


Feels Like: 56 °F
Forecast: 52 / 64 °F
Wind: 1 mph from Northeast

Location: Torun

Current Time: Aug 23, 2014 at 4:01:30 AM

Latest Report: Aug 23, 2014 at 3:00 AM


Visibility: 8 mi

Pressure: 29.89 "Hg

Humidity: 93%

Dew point: 54 °F

Location of BydgoszczLocation

Historic Weather in Bydgoszcz — Graph

°F

Bydgoszcz temperature yesterday

Maximum temperature yesterday: 72 °F (at 5:00 PM)
Minimum temperature yesterday: 41 °F (at 6:00 AM)
Average temperature yesterday: 58 °F

Past Weeks' High & Low Weather Summary

 TemperatureHumidityPressure
High87 °F (Aug 9, 4:00 PM)99% (Aug 16, 1:00 AM)30.02 "Hg (Aug 16, 1:00 AM)
Low41 °F (Aug 22, 6:00 AM)28% (Aug 9, 4:00 PM)29.56 "Hg (Aug 14, 4:00 AM)
Average64 °F70%29.86 "Hg
* Reported Aug 8 2:00 AM — Aug 23 2:00 AM, Bydgoszcz, Weather by CustomWeather, © 2014

Note: Actual official high and low records may vary slightly from our data, if they occured in-between our weather recording intervals... More about our weather records

Advertising

Bydgoszcz weather history for previous 24 hours

 ConditionsComfort  
Time TempWeatherWind HumidityBarometerVisibility
2:00 AM
Aug 23
57 °FSprinkles. Overcast.3 mph82%29.92 "Hg7 mi
1:00 AM59 °FOvercast.2 mph61%29.90 "Hg22 mi
12:00 AM60 °FPassing clouds.1 mph59%29.91 "Hg25 mi
11:00 PM
Aug 22
59 °FPassing clouds.1 mph62%29.91 "Hg22 mi
10:00 PM61 °FPassing clouds.1 mph57%29.92 "Hg31 mi
9:00 PM64 °FOvercast.2 mph49%29.92 "Hg25 mi
8:00 PM64 °FPassing clouds.1 mph46%29.91 "Hg31 mi
7:00 PM68 °FPartly sunny.3 mph39%29.91 "Hg31 mi
6:00 PM70 °FPartly sunny.5 mph36%29.92 "Hg31 mi
5:00 PM72 °FPartly sunny.5 mph30%29.92 "Hg31 mi
4:00 PM71 °FPartly sunny.3 mph35%29.93 "Hg25 mi
3:00 PM69 °FPartly sunny.5 mph34%29.95 "Hg28 mi
2:00 PM70 °FPartly sunny.3 mph39%29.96 "Hg22 mi
1:00 PM69 °FScattered clouds.3 mph41%29.98 "Hg22 mi
12:00 PM65 °FPartly sunny.3 mph50%30.00 "Hg28 mi
11:00 AM66 °FPartly sunny.2 mph52%30.00 "Hg19 mi
10:00 AM63 °FPassing clouds.2 mph62%30.01 "Hg19 mi
9:00 AM58 °FPassing clouds.2 mph71%30.01 "Hg13 mi
8:00 AM53 °FScattered clouds.2 mph84%30.02 "Hg16 mi
7:00 AM47 °FFog.1 mph99%30.02 "Hg6 mi
6:00 AM41 °FFog.No wind97%30.02 "Hg3 mi
5:00 AM42 °FFog.No wind97%30.02 "Hg6 mi
4:00 AM43 °FClear.No wind95%30.02 "Hg7 mi
Weather by CustomWeather, © 2014

See weather overviewHow to use our weather pages